If you wish to contribute or participate in the discussions about articles you are invited to join SKYbrary as a registered user

 Actions

La Rochelle-Île de Ré Airport

From SKYbrary Wiki

LFBH
Airport
ICAO: LFBH – IATA: LRH
Summary
Name La Rochelle-Île de Ré Airport
Region Europe
Territory France FR.gif
Location , Poitou-Charentes
Serving La Rochelle
Elevation 22.555 m
74 ft
74 ft22.555 m
Type medium airport
Coordinates 46° 10' 45.12" N, 1° 11' 43.01" W
Runways
Designator Length Width Surface ROPS
10/28 2255 m7,398.294 ft
45 m147.638 ft
ASP /


METAR
Observation LFBH 182200Z AUTO 29013KT 9999 BKN029 BKN036 18/12 Q1017 NOSIG
Station La Rochelle
Date/Time 18 August 2019 22:00:00
Wind direction 290°
Wind speed 13 kts
Lowest cloud amount broken clouds
Temperature 18°C
Dew point 12°C
Humidity 67%
QNH 1017 hPa
Weather condition n/a